Temp
13 13 12 13 13 13 14 14 14 15 14 13 13 11 11 11 11 10 9 9 8 7 6 5 5 4 3 1 -0 -0 -0 1 2 2 -0 -1 -1 -2 -2 -2 -2 -2 -3
13 13 13 12 12 12 13 13 13 13 12 13 11 11 10 11 10 9 9 8 7 6 5 5 4 3 1 0 -0 -0 -0 -1 -0 0 -1 -1 -2 -2 -2 -3 -3 -2 -2
12 11 11 11 10 10 11 12 12 12 11 11 10 10 10 11 9 8 8 7 6 5 5 5 4 3 1 -1 -1 -1 -1 -1 -1 -1 -1 -2 -2 -2 -2 -2 -3 -2 -2
11 10 9 9 9 9 9 10 10 10 10 10 9 9 10 10 8 8 7 6 5 5 5 4 3 2 1 -0 -1 -2 -2 -2 -2 -2 -2 -1 -2 -2 -2 -3 -3 -3 -3
9 8 8 8 8 8 8 9 8 7 9 8 8 9 9 8 8 7 6 6 6 5 4 3 2 1 1 0 -1 -1 -2 -2 -2 -2 -1 -1 -2 -3 -3 -3 -4 -4 -3
7 7 7 8 8 7 7 7 6 6 8 7 7 8 7 7 7 7 7 6 5 4 3 2 1 0 -1 -1 -2 -2 -3 -3 -3 -3 -2 -2 -2 -3 -3 -4 -4 -5 -3
7 7 7 7 6 6 6 5 5 5 6 6 7 7 7 7 6 6 5 5 4 3 2 1 -0 -1 -2 -2 -3 -3 -3 -3 -3 -3 -3 -3 -4 -4 -4 -5 -5 -5 -5
7 7 7 6 5 5 5 4 5 5 5 5 6 5 6 5 5 5 5 4 3 2 2 1 1 -1 -1 -2 -2 -3 -3 -3 -3 -3 -3 -4 -4 -4 -4 -5 -6 -6 -6
6 5 6 5 5 5 4 4 4 4 4 5 5 5 5 4 4 4 4 2 2 1 1 1 0 -2 -1 -2 -3 -3 -3 -3 -3 -3 -3 -4 -4 -5 -5 -6 -6 -6 -5
4 5 6 6 5 4 4 3 3 3 3 3 3 4 4 4 3 3 3 2 1 1 -0 -0 -2 -2 -2 -3 -3 -3 -4 -3 -3 -3 -3 -4 -4 -4 -5 -5 -6 -6 -6
5 4 4 4 4 4 3 2 2 1 1 2 2 2 2 2 1 0 1 2 2 1 -0 -1 -2 -2 -2 -3 -4 -4 -4 -4 -4 -4 -4 -4 -4 -4 -5 -5 -5 -7 -7
4 4 3 3 2 2 2 1 1 1 1 1 0 0 0 1 1 -0 0 1 1 2 0 -1 -1 -2 -3 -3 -4 -4 -4 -4 -4 -5 -5 -5 -5 -5 -6 -6 -6 -6 -7
3 3 2 2 1 1 0 -0 -1 -1 -1 -2 -2 -2 -1 -1 -1 -1 -1 -2 -0 -1 -0 -1 -2 -3 -3 -4 -4 -4 -4 -4 -5 -5 -5 -6 -6 -6 -6 -6 -7 -7 -7
3 2 1 0 -0 -0 -0 -1 -1 -1 -1 -2 -2 -2 -2 -2 -2 -1 -2 -3 -3 -3 -3 -3 -3 -4 -4 -5 -5 -5 -5 -5 -6 -6 -5 -6 -7 -8 -7 -7 -8 -7 -8
1 1 -0 -1 -1 -1 -1 -1 -1 -1 -0 -1 -1 -1 -2 -2 2 3 2 0 -2 -2 -4 -4 -5 -6 -6 -6 -6 -5 -6 -6 -6 -6 -7 -7 -8 -8 -8 -8 -9 -9 -9
0 -1 -1 -2 -2 -2 -2 -3 -2 -2 -1 -1 0 2 1 2 2 2 2 1 -1 -4 -5 -5 -6 -6 -6 -6 -7 -7 -6 -7 -7 -8 -9 -9 -9 -9 -9 -9 -10 -9 -9
0 -0 -2 -2 -3 -3 -3 -2 -3 -4 -3 -2 -1 -0 1 3 2 2 1 -1 -3 -5 -5 -6 -6 -6 -6 -6 -6 -6 -7 -8 -8 -8 -10 -10 -10 -10 -11 -10 -9 -9 -9
-1 -1 -1 -2 -3 -3 -3 -3 -3 -3 -4 -5 -3 -0 1 1 1 1 -1 -4 -5 -5 -5 -6 -6 -6 -6 -6 -6 -7 -8 -8 -9 -10 -11 -11 -12 -11 -11 -11 -10 -10 -10
-3 -3 -2 -3 -3 -3 -4 -4 -3 -4 -3 -3 -4 -4 -2 -1 -0 -2 -5 -5 -5 -5 -6 -7 -6 -6 -6 -6 -7 -8 -9 -9 -10 -11 -11 -12 -12 -13 -13 -12 -12 -12 -13
-4 -3 -3 -4 -4 -4 -4 -4 -4 -4 -4 -3 -4 -3 -4 -5 -5 -5 -5 -5 -6 -6 -7 -6 -6 -6 -6 -7 -8 -9 -10 -11 -12 -12 -12 -13 -13 -13 -14 -14 -14 -13 -14
-5 -5 -4 -4 -5 -5 -5 -5 -4 -4 -4 -3 -4 -3 -2 -2 -4 -5 -6 -5 -6 -7 -7 -6 -6 -7 -7 -8 -9 -10 -11 -12 -12 -12 -12 -13 -13 -14 -14 -15 -15 -15 -15
-7 -6 -6 -6 -5 -5 -5 -5 -5 -5 -4 -4 -4 -4 -5 -6 -5 -5 -6 -6 -6 -7 -6 -6 -7 -8 -8 -8 -9 -10 -11 -12 -12 -12 -13 -13 -14 -14 -15 -16 -16 -16 -16
-8 -8 -8 -7 -7 -7 -7 -7 -6 -6 -5 -5 -6 -8 -7 -7 -8 -8 -8 -9 -7 -7 -7 -7 -8 -9 -9 -10 -10 -11 -12 -12 -12 -13 -14 -14 -15 -16 -16 -17 -17 -17 -17
-9 -10 -11 -10 -10 -10 -9 -9 -9 -9 -8 -9 -8 -7 -7 -7 -8 -8 -9 -9 -9 -9 -9 -9 -9 -10 -10 -11 -12 -12 -12 -13 -13 -14 -15 -15 -15 -16 -17 -17 -18 -18 -18
-11 -12 -12 -12 -11 -10 -10 -10 -10 -10 -10 -9 -9 -9 -9 -9 -10 -10 -10 -10 -9 -9 -9 -10 -11 -11 -12 -12 -12 -13 -13 -14 -15 -15 -15 -16 -16 -16 -17 -17 -18 -19 -19
-12 -13 -14 -14 -13 -13 -12 -12 -11 -11 -12 -12 -12 -11 -11 -12 -11 -11 -12 -12 -12 -12 -11 -11 -12 -13 -13 -13 -13 -14 -14 -14 -15 -15 -16 -16 -17 -17 -18 -18 -18 -19 -19
Height
788 791 795 799 802 806 810 814 817 819 822 826 829 835 839 842 847 852 855 858 861 863 866 867 867 869 873 875 873 875 875 877 878 878 877 877 875 871 868 864 862 859 855
783 787 789 792 795 798 801 806 811 814 817 820 825 828 833 837 843 849 853 856 858 860 861 864 866 867 871 872 874 873 872 874 875 876 876 874 873 870 866 862 859 857 853
779 784 786 787 788 792 795 797 802 806 810 815 821 824 827 833 837 844 849 852 855 857 859 860 863 866 869 869 871 871 870 871 870 872 873 872 870 867 863 861 859 855 852
775 780 782 784 785 790 792 793 795 800 805 812 817 820 824 830 835 838 845 849 852 854 856 858 860 864 865 866 868 868 868 868 868 870 869 869 867 865 861 860 856 854 852
774 777 778 779 782 786 788 792 793 797 803 809 813 815 820 824 831 835 841 845 848 850 854 856 859 861 862 862 865 864 865 866 865 867 865 866 864 862 859 858 856 854 851
770 771 774 775 779 782 784 787 790 794 799 806 810 813 818 822 828 832 836 840 844 846 849 853 855 858 859 860 861 861 863 863 862 863 861 862 860 858 857 856 855 854 850
764 766 767 770 774 776 780 783 786 791 798 801 806 811 813 819 825 829 832 837 841 844 847 849 851 854 856 857 859 859 860 859 859 859 857 859 857 855 855 854 854 853 850
759 761 764 766 769 772 777 780 784 789 792 797 800 807 811 815 819 824 829 833 836 839 844 846 848 851 852 853 856 857 857 856 855 853 854 854 853 852 852 853 851 849 845
753 757 760 762 765 768 771 776 781 786 790 793 798 802 806 811 815 820 824 830 833 835 839 842 844 847 848 850 852 854 854 853 852 850 850 850 849 848 849 848 847 846 843
748 750 754 758 762 765 769 772 776 781 786 792 797 802 804 808 814 817 822 824 828 832 836 838 840 843 844 846 848 849 850 849 847 847 847 846 844 843 843 843 844 843 843
746 749 752 755 758 761 765 770 774 779 784 789 796 800 804 807 810 814 818 821 822 825 830 833 834 837 839 842 843 844 845 845 844 844 843 842 840 839 839 839 839 838 839
745 747 750 754 756 759 763 766 771 775 780 785 791 795 800 804 809 811 813 817 820 822 824 827 830 833 835 837 838 839 841 841 840 839 838 838 837 837 836 835 834 833 832
743 745 748 751 755 759 761 764 770 774 779 782 787 792 796 801 806 808 811 814 817 820 821 823 826 829 831 832 833 834 834 835 835 834 832 832 832 832 831 830 829 828 826
742 745 747 750 753 756 760 764 766 769 774 778 783 788 792 796 799 802 807 811 814 816 818 819 822 824 826 826 827 827 828 828 828 828 828 828 828 827 826 826 824 823 822
743 743 745 747 749 753 756 758 761 764 768 771 774 779 783 788 790 795 799 803 806 809 812 816 817 818 819 819 819 820 821 821 822 822 823 823 823 822 820 821 820 818 818
743 745 745 745 747 750 753 756 759 761 763 766 770 774 778 782 786 790 794 797 800 803 807 808 809 811 811 813 814 814 815 815 816 816 818 818 817 816 816 817 816 815 813
743 745 745 745 747 747 749 749 752 756 758 761 764 768 774 777 780 784 788 790 792 799 799 800 801 802 804 805 807 808 809 810 810 811 812 813 813 812 812 812 811 811 810
745 746 745 745 744 746 748 748 749 750 751 753 756 761 766 771 775 778 780 785 790 792 792 792 793 794 796 797 799 801 802 803 804 805 806 806 806 807 808 808 808 808 806
745 745 744 744 744 745 745 746 749 748 746 747 750 754 757 762 765 771 773 776 777 779 780 782 785 787 788 790 792 794 795 797 799 800 800 800 800 802 803 803 803 801 801
744 743 745 743 744 743 741 744 745 744 745 745 744 743 747 755 756 761 763 765 767 768 769 771 775 778 780 782 785 787 789 791 792 792 793 795 794 796 798 799 799 797 797
745 741 741 741 741 740 741 741 741 740 739 739 738 739 740 739 742 747 750 753 754 756 758 762 766 769 772 774 777 780 782 785 786 785 787 789 789 790 792 795 793 793 793
743 742 740 739 739 738 738 737 736 736 736 736 737 736 737 738 736 738 740 741 743 748 750 754 757 760 762 766 769 772 774 775 777 780 783 782 784 785 787 787 786 787 790
740 739 738 737 736 735 734 733 732 733 733 733 733 732 734 736 735 736 737 738 737 740 743 746 749 751 754 758 760 764 767 769 770 773 777 777 778 781 783 782 781 784 787
739 737 735 734 734 732 731 729 728 728 728 728 727 727 729 730 730 728 729 731 734 734 737 740 742 743 745 749 753 755 758 761 764 768 770 770 774 777 778 775 774 777 782
736 734 732 731 730 728 726 725 725 723 722 721 720 720 719 720 720 720 721 721 722 723 725 732 735 739 739 740 744 747 751 754 758 761 761 764 767 769 770 770 772 774 775
733 731 729 729 727 726 724 722 720 719 718 716 714 713 713 712 712 712 713 714 717 717 718 721 728 731 734 735 737 740 743 747 750 751 754 757 762 762 763 763 764 766 768
Wind_Speed
27 27 26 24 26 32 34 35 33 34 37 36 34 31 29 25 22 23 23 22 20 17 15 13 11 10 8 7 6 5 4 2 1 1 4 6 9 10 11 13 12 14 15
25 25 26 25 28 29 33 34 33 36 39 38 35 33 30 25 26 26 25 22 20 18 17 14 12 11 9 8 6 6 5 2 0 3 5 6 7 9 11 13 13 16 18
22 22 22 24 27 30 34 35 35 39 42 39 37 35 31 29 29 27 24 23 20 17 16 14 13 13 11 9 7 6 5 3 2 2 5 6 7 8 11 11 13 17 19
19 19 20 21 25 28 32 33 36 39 42 38 37 34 31 31 30 28 25 23 20 17 16 15 14 14 12 10 7 5 4 3 2 2 4 5 6 9 8 12 16 16 20
18 19 20 22 23 27 28 30 34 38 39 39 37 34 34 33 31 29 26 23 21 19 17 16 15 14 12 10 8 6 4 4 2 2 3 5 7 11 11 13 14 15 15
19 21 21 22 24 26 28 30 33 36 37 37 36 36 35 33 31 29 26 24 22 20 20 17 15 13 11 8 8 7 6 5 3 4 3 6 7 8 11 11 12 12 7
24 25 24 24 26 27 28 31 35 38 38 37 37 37 36 33 30 28 26 23 22 21 20 19 17 14 12 9 8 6 5 6 6 5 5 6 8 9 13 11 10 11 13
27 27 27 27 28 28 30 33 36 38 40 41 39 38 35 33 32 30 26 24 23 21 20 18 16 15 13 12 10 9 7 5 6 7 8 9 8 11 11 13 14 15 16
30 31 30 30 30 32 35 37 39 40 39 40 40 39 36 33 32 30 28 26 24 22 20 18 17 17 13 13 11 11 11 11 8 8 9 10 12 12 13 15 11 8 10
29 34 34 34 33 35 37 38 40 40 39 38 38 36 34 32 30 29 29 28 25 23 20 18 18 17 14 14 14 13 13 12 10 10 11 12 13 15 16 18 12 9 9
28 29 31 34 36 36 36 36 37 36 35 36 36 34 32 31 30 28 29 27 26 25 23 22 20 18 16 16 15 16 17 13 12 13 15 15 17 17 14 13 14 12 11
22 26 29 32 33 34 36 36 37 38 36 35 33 32 31 31 30 29 27 28 25 24 24 22 19 18 18 18 17 17 16 14 15 13 13 15 14 13 12 13 15 16 17
17 22 26 28 31 32 32 31 29 30 26 25 26 26 30 31 30 27 25 24 24 23 21 19 18 18 18 17 16 17 17 18 16 13 15 16 14 13 16 18 18 18 19
15 19 21 24 25 28 28 29 28 28 25 24 25 24 25 28 28 29 27 24 22 20 19 18 18 17 18 20 20 20 20 18 16 13 14 14 13 14 12 11 12 11 12
13 15 18 21 24 24 26 28 29 31 34 32 33 31 29 28 36 34 33 31 28 25 22 21 21 18 18 17 19 20 18 17 17 15 13 14 13 12 12 11 11 10 12
11 12 14 17 20 21 22 20 24 25 33 32 33 38 37 33 33 33 29 26 26 25 24 24 22 20 18 16 16 15 16 16 15 13 11 12 12 11 11 11 11 12 13
13 13 13 15 14 18 21 23 20 19 23 30 32 33 35 35 31 27 26 27 24 23 25 23 22 20 19 18 18 18 15 13 15 14 12 11 10 10 11 11 11 12 12
12 15 14 14 14 16 18 20 21 23 23 23 33 33 33 33 30 26 24 22 23 27 27 22 25 25 21 20 19 19 18 17 16 14 12 11 10 10 10 10 11 12 10
12 13 14 14 14 17 18 18 21 22 23 23 25 28 33 32 27 25 27 31 28 29 31 32 29 25 23 22 22 21 19 18 17 15 14 13 12 11 11 11 11 12 10
11 14 16 12 13 14 15 18 19 21 22 23 26 29 32 28 25 30 31 34 30 31 30 36 30 27 25 24 23 22 20 20 18 16 14 13 13 12 11 11 11 9 9
11 11 13 15 13 14 16 18 20 22 24 25 27 31 39 40 35 32 33 34 35 34 37 34 31 29 27 25 24 23 22 19 18 16 15 14 14 13 13 11 9 10 11
11 10 10 12 13 13 16 17 19 21 23 24 23 24 27 31 29 31 32 33 39 39 38 32 30 28 27 27 25 24 23 21 18 17 17 15 14 14 14 12 10 9 9
11 11 11 12 13 15 15 16 17 18 19 19 16 17 21 21 22 25 22 24 33 35 34 31 29 28 27 26 25 24 23 21 18 17 17 16 15 14 14 10 8 9 10
12 11 10 11 12 13 14 15 16 20 21 19 21 25 25 27 28 33 33 33 33 29 30 31 30 28 27 26 25 24 22 20 18 19 17 16 16 16 15 12 11 12 12
14 13 12 11 12 13 14 14 15 16 20 23 25 27 29 31 31 33 34 32 30 30 30 29 29 28 27 26 25 23 20 19 20 19 18 19 20 18 17 15 13 12 13
15 14 13 12 13 13 14 14 15 15 16 18 22 24 26 28 30 30 29 29 29 28 26 26 28 27 26 25 23 22 21 22 22 20 20 20 22 21 19 18 17 15 14
Wind_Direction
213 213 212 212 216 224 228 228 227 220 205 200 196 194 190 186 192 190 185 180 178 173 170 168 163 160 164 158 146 145 123 114 261 264 310 328 343 343 345 350 353 351 353
215 216 217 214 215 217 222 224 223 217 204 199 194 189 187 188 188 187 184 181 180 175 173 170 168 167 168 163 160 150 138 133 76 309 302 327 337 344 343 349 350 355 355
215 220 220 218 218 217 223 217 216 211 201 195 193 188 185 188 184 185 187 183 182 179 177 177 178 176 177 170 169 157 155 149 148 273 308 321 332 339 348 347 351 354 352
216 217 221 220 220 218 219 215 210 205 197 192 192 187 187 186 185 184 185 184 182 181 183 183 182 185 183 174 174 169 164 165 184 258 295 303 330 343 351 352 349 348 340
217 220 223 222 217 218 214 213 207 198 196 192 188 186 187 185 186 186 186 185 185 182 182 184 187 190 188 184 186 184 182 190 207 265 293 315 337 347 351 342 340 330 325
214 216 217 214 215 216 212 208 202 193 191 192 190 188 184 187 189 189 189 188 187 185 183 183 186 186 182 181 187 189 199 201 218 251 297 319 321 332 334 329 323 326 326
215 216 213 212 211 209 209 203 196 192 189 189 189 190 187 188 190 189 190 190 188 187 186 185 184 189 189 196 196 196 211 210 232 254 258 288 303 314 316 307 307 301 296
218 217 213 210 210 206 203 199 195 194 192 191 189 191 190 190 190 191 190 190 188 188 190 190 194 197 200 201 205 218 227 235 248 250 256 280 294 303 295 292 290 293 306
217 217 215 211 208 204 200 198 196 194 193 193 193 192 191 191 193 193 191 189 188 188 191 198 203 206 208 202 216 231 242 250 259 268 259 271 288 289 283 279 274 281 299
216 220 218 214 211 207 203 198 197 198 196 195 195 196 195 193 194 194 194 190 187 191 198 205 209 212 211 211 222 234 244 255 268 262 265 277 291 293 288 262 257 262 281
230 225 221 217 214 211 205 202 199 194 194 194 197 197 199 200 195 192 194 196 195 194 204 212 215 215 219 221 228 237 246 262 270 272 270 274 282 292 286 257 254 257 259
234 227 223 220 215 211 207 200 200 195 193 193 194 197 201 202 203 197 198 202 204 207 216 224 228 220 224 227 233 239 248 258 262 266 263 269 272 273 267 257 258 273 268
233 228 225 219 215 213 202 195 188 190 187 186 188 190 197 199 202 206 204 205 209 219 228 234 228 223 226 230 235 237 238 247 261 257 257 261 263 259 262 269 274 274 274
228 226 222 216 209 210 204 201 194 191 190 190 190 195 197 199 202 205 206 207 214 219 228 225 222 225 228 232 238 238 243 249 253 250 259 262 263 266 269 269 270 271 275
230 225 221 214 208 205 206 205 202 207 203 197 200 197 191 199 207 206 207 210 214 221 220 221 220 219 225 229 237 240 246 251 252 256 254 256 258 262 267 268 264 262 256
233 228 221 207 207 203 201 204 211 217 212 210 212 215 214 217 211 208 216 220 226 221 212 216 216 218 221 224 229 238 243 246 247 248 247 249 252 259 266 267 262 253 257
254 247 233 217 215 205 204 202 198 210 212 212 213 217 220 216 212 214 223 221 223 202 216 218 218 219 224 228 233 236 238 241 242 248 247 248 254 260 261 261 259 255 257
271 266 256 240 224 218 217 216 211 202 194 201 214 216 218 216 218 228 218 202 198 213 222 220 223 227 228 230 232 234 237 240 243 243 240 241 245 248 252 255 254 254 257
274 266 260 250 238 229 224 223 223 217 212 206 205 208 213 215 219 224 197 199 207 211 220 225 230 231 231 231 231 232 234 237 238 237 239 240 240 239 244 244 243 243 249
295 276 272 259 248 237 229 225 224 223 221 217 210 205 203 199 198 204 206 210 218 220 220 230 231 229 230 229 229 231 232 233 233 234 235 237 236 238 241 244 243 243 244
305 295 275 263 253 248 240 234 233 230 229 226 222 214 213 205 207 208 209 214 220 220 229 231 229 229 229 227 227 228 229 231 231 231 233 235 234 233 238 239 240 251 253
316 300 284 264 261 253 250 246 243 242 239 237 235 229 218 223 216 218 219 220 228 231 236 232 228 228 228 228 227 226 227 228 231 232 231 230 233 235 235 234 238 242 250
324 309 298 286 276 269 263 258 252 248 248 248 244 246 232 229 240 240 237 231 236 236 232 228 227 228 227 227 226 227 230 232 232 231 232 230 232 232 233 231 233 243 245
326 317 303 293 287 281 272 266 261 255 251 251 251 257 261 262 253 253 250 250 249 240 231 231 232 229 226 226 227 228 230 232 231 233 232 233 236 239 238 237 234 241 247
325 319 313 303 296 290 289 282 276 269 266 264 263 262 262 263 258 252 248 246 239 232 229 232 231 231 228 225 227 229 230 232 233 235 235 236 239 241 241 242 244 245 247
320 315 310 305 299 294 289 285 282 280 275 277 276 274 271 266 261 254 248 242 236 231 228 229 233 231 230 229 228 230 230 231 233 233 234 236 244 245 244 244 246 245 247